User: anonymous   Login
Location: Grasslands National Park East Block
(49.0708°N, 106.5295°W)
Time: 01:24:05
(UTC-06:00)
Language:

STARS - Orbit

View from above orbital plane
View from above orbital plane
View from above satellite
View from above satellite

Ground track
Ground track

The orbit data is extracted from the following two-line orbital elements,

1 33498U 09002G   19262.64576796  .00000115  00000-0  23143-4 0  9992
2 33498  98.2976 114.7912 0009906 226.5448 133.4938 14.79022531573741
Epoch (UTC): 19 September 2019 15:29:54
Eccentricity: 0.0009906
inclination: 98.2976°
perigee height: 625 km
apogee height: 639 km
right ascension of ascending node: 114.7912°
argument of perigee: 226.5448°
revolutions per day: 14.79022531
mean anomaly at epoch: 133.4938°
orbit number at epoch: 57374

The dashed part of the orbit path shows where the satellite is in the earth's shadow,  

DLR